Header for Extended Forecast Station List Page

Search by: ID | Name | Date | Parm | Value | Avg | % Avg
Sort by: ID | Name | Date | Parm | Value | Avg | % Avg

Enter search or view all records.

Click on id for station plot
#IDNameDateParmValueAvg% Avg
0WRMO3MALHEUR-WARM SPRINGS DAM05-09-2022INFLOW (KAF)51727
1BERO3MALHEUR-AGENCY VALLEY DAM05-09-2022INFLOW (KAF)102539
2HOTI1BRUNEAU-NEAR HOT SPRINGS05-09-2022DISCHARGE (KAF)4910646
3DLGM8CLARK FORK-AT DEER LODGE05-09-2022DISCHARGE (KAF)346354
4OWYO3OWYHEE-OWYHEE DAM05-09-2022INFLOW (KAF)6311654
5CHEI1FALL RIVER-NEAR CHESTER05-09-2022DISCHARGE (KAF)14925559
6DRMM8CLARK FORK-NR DRUMMOND05-09-2022DISCHARGE (KAF)11118560
7REXI1HENRYS FORK-AT REXBURG05-09-2022DISCHARGE (KAF)33956260
8PIHI1PORTNEUF-AT POCATELLO05-09-2022DISCHARGE (KAF)193062
9LWRI1LITTLE WOOD-LITTLE WOOD DAM05-09-2022INFLOW (KAF)253866
10RIDI1WILLOW CREEK-RIRIE DAM05-09-2022INFLOW (KAF)152173
11ANTI1HENRYS FORK-AT ST. ANTHONY05-09-2022DISCHARGE (KAF)35948874
12JLKW4SNAKE-JACKSON LAKE AT DAM05-09-2022INFLOW (KAF)46462774
13BFTI1SNAKE-NEAR BLACKFOOT05-09-2022DISCHARGE (KAF)762102674
14EMMI1PAYETTE-NEAR EMMETT05-09-2022DISCHARGE (KAF)67289175
15SNAI1SNAKE-AT BLACKFOOT05-09-2022DISCHARGE (KAF)805106376
16IPDI1HENRYS FORK-ISLAND PARK DAM05-09-2022INFLOW (KAF)13217177
17TEAI1TETON-NEAR ST. ANTHONY05-09-2022DISCHARGE (KAF)25132577
18HWRI1BIG LOST-AT HOWELL RANCH NEAR CHILLY05-09-2022DISCHARGE (KAF)9712578
19SHYI1SNAKE-NEAR SHELLEY05-09-2022DISCHARGE (KAF)1378173979
20ALPW4SNAKE-NEAR ALPINE05-09-2022DISCHARGE (KAF)1560193281
21MAGI1BIG WOOD-MAGIC DAM05-09-2022INFLOW (KAF)9011082
22SIFI1SNAKE-AB EAGLE ROCK NR IDAHO FALLS05-09-2022DISCHARGE (KAF)1613194083
23AFRI1SNAKE-AMERICAN FALLS RESERVOIR05-09-2022INFLOW (KAF)1288156083
24SERO3JOHN DAY-AT SERVICE CK05-09-2022DISCHARGE (KAF)28134083
25ABOM8CLARK FORK-ABOVE MISSOULA05-09-2022DISCHARGE (KAF)873103784
26JKSW4SNAKE-NEAR JACKSON05-09-2022DISCHARGE (KAF)1326157084
27PLDI1SF SNAKE-PALISADES DAM05-09-2022INFLOW (KAF)2154256384
28LAUW1KETTLE-AT LAURIER05-09-2022DISCHARGE (KAF)1065124885
29CSDI1NF PAYETTE-CASCADE DAM05-09-2022INFLOW (KAF)26731385
30BRNI1SNAKE-BROWNLEE DAM05-09-2022INFLOW (KAF)2940343985
31ANAW1SNAKE-NEAR ANATONE05-09-2022DISCHARGE (KAF)8113949885
32BONM8BLACKFOOT-NEAR BONNER05-09-2022DISCHARGE (KAF)49757487
33HALI1BIG WOOD-AT HAILEY05-09-2022DISCHARGE (KAF)14016187
34WEII1SNAKE-AT WEISER05-09-2022DISCHARGE (KAF)2733313187
35SATI1ST MARIES-NEAR SANTA05-09-2022DISCHARGE (KAF)455189
36SWAI1SNAKE-BELOW SWAN FALLS05-09-2022DISCHARGE (KAF)1489168189
37HEII1SNAKE-NEAR HEISE05-09-2022DISCHARGE (KAF)2647294190
38LGDW1SNAKE-LOWER GRANITE DAM05-09-2022INFLOW (KAF)134451488590
39LGSW1SNAKE-LITTLE GOOSE DAM05-09-2022INFLOW (KAF)134381486390
40DEDI1DEADWOOD-NEAR LOWMAN05-09-2022INFLOW (KAF)829091
41LMNW1SNAKE-LOWER MONUMENTAL DAM05-09-2022INFLOW (KAF)134941483391
42IHDW1SNAKE-ICE HARBOR DAM05-09-2022INFLOW (KAF)134981484191
43BELM8CLARK FORK-BELOW MISSOULA05-09-2022DISCHARGE (KAF)1829199192
44PRTI1PRIEST-NEAR PRIEST RIVER05-09-2022DISCHARGE (KAF)48552892
45TRYO3GRANDE RONDE-TROY05-09-2022DISCHARGE (KAF)71476493
46PARI1BOISE-NEAR PARMA05-09-2022DISCHARGE (KAF)22223794
47WHBI1SALMON-AT WHITEBIRD05-09-2022DISCHARGE (KAF)4162437595
48SRGM8CLARK FORK-AT ST REGIS05-09-2022DISCHARGE (KAF)2495259796
49MONO3NF JOHN DAY-AT MONUMENT05-09-2022DISCHARGE (KAF)22623796
50BIGI1BOISE-AT GLENWOOD BRIDGE05-09-2022DISCHARGE (KAF)26727497
51ARAI1SF BOISE-ANDERSON RANCH DAM05-09-2022INFLOW (KAF)27728498
52NOXM8CLARK FORK-NOXON RAPIDS DAM05-09-2022INFLOW (KAF)68286843100
53CABI1CLARK FORK-CABINET GORGE DAM05-09-2022INFLOW (KAF)74837516100
54MACI1BIG LOST-MACKAY RESERVOIR NEAR MACKAY05-09-2022INFLOW (KAF)9392101
55MCDW1COLUMBIA-MCNARY DAM05-09-2022INFLOW (KAF)4967049361101
56MODO3DESCHUTES-AT MOODY NR BIGGS05-09-2022DISCHARGE (KAF)11681160101
57BONO3COLUMBIA-BONNEVILLE DAM05-09-2022INFLOW (KAF)5203551298101
58LEOI1KOOTENAI-AT LEONIA05-09-2022DISCHARGE (KAF)41184028102
59LUCI1BOISE-LUCKY PEAK DAM05-09-2022INFLOW (KAF)1015998102
60ALFW1PEND OREILLE-ALBENI FALLS DAM05-09-2022INFLOW (KAF)83928170103
61JDAO3COLUMBIA-JOHN DAY DAM05-09-2022INFLOW (KAF)5085849501103
62TDAO3COLUMBIA-THE DALLES DAM05-09-2022INFLOW (KAF)5112949697103
63HHWM8SF FLATHEAD-HUNGRY HORSE DAM05-09-2022INFLOW (KAF)14831425104
64BITM8BITTERROOT-NEAR MISSOULA05-09-2022DISCHARGE (KAF)956916104
65WSRI1WEISER-NEAR WEISER05-09-2022DISCHARGE (KAF)193184105
66CIBW1COLUMBIA-AT INTL BOUNDARY05-09-2022DISCHARGE (KAF)3163729917106
67CHJW1COLUMBIA-CHIEF JOSEPH DAM05-09-2022INFLOW (KAF)3091829038106
68RRHW1COLUMBIA-ROCKY REACH DAM05-09-2022INFLOW (KAF)3396632026106
69WANW1COLUMBIA-WANAPUM DAM05-09-2022INFLOW (KAF)3508533059106
70PRWW1COLUMBIA-PRIEST RAPIDS DAM05-09-2022INFLOW (KAF)3505233161106
71SPDI1CLEARWATER-AT SPALDING05-09-2022DISCHARGE (KAF)53335019106
72RCCM8ROCK CREEK-NEAR CLINTON05-09-2022DISCHARGE (KAF)229213107
73WELW1COLUMBIA-WELLS DAM05-09-2022INFLOW (KAF)3311131084107
74KERM8FLATHEAD-SELI’Š KSANKA QLISPE’ DAM05-09-2022INFLOW (KAF)45174181108
75PESW1WENATCHEE-AT PESHASTIN05-09-2022DISCHARGE (KAF)11221043108
76CFMM8FLATHEAD-AT COLUMBIA FALLS05-09-2022DISCHARGE (KAF)38773488111
77UMTW1YAKIMA-AT UMTANUM05-09-2022DISCHARGE (KAF)924831111
78LYDM8KOOTENAI-LIBBY DAM05-09-2022INFLOW (KAF)55894896114
79GCDW1COLUMBIA-GRAND COULEE DAM05-09-2022INFLOW (KAF)3458130418114
80ARDW1ENTIAT-NEAR ARDENVOIR05-09-2022DISCHARGE (KAF)186162115
81ORFI1CLEARWATER-AT OROFINO05-09-2022DISCHARGE (KAF)33962964115
82FCFM8NF FLATHEAD-NEAR COLUMBIA FALLS05-09-2022DISCHARGE (KAF)14671264116
83TONW1OKANOGAN-NEAR TONASKET05-09-2022DISCHARGE (KAF)14041212116
84PATW1METHOW-NEAR PATEROS05-09-2022DISCHARGE (KAF)786676116
85DWRI1NF CLEARWATER-DWORSHAK DAM05-09-2022INFLOW (KAF)17771532116
86UNDW1WHITE SALMON-NEAR UNDERWOOD05-09-2022DISCHARGE (KAF)271233116
87CHDW1CHELAN-LAKE CHELAN DAM05-09-2022INFLOW (KAF)965825117
88WGCM8MF FLATHEAD-NEAR WEST GLACIER05-09-2022DISCHARGE (KAF)14151199118
89PITW1KLICKITAT-NEAR PITT05-09-2022DISCHARGE (KAF)383325118
90LLKW1SPOKANE-AT LONGLAKE05-09-2022INFLOW (KAF)18251507121
91RILW1TIETON-RIMROCK LAKE NEAR RIMROCK05-09-2022INFLOW (KAF)186151123
92STRM8ST. REGIS-NEAR ST. REGIS05-09-2022DISCHARGE (KAF)200162124
93BUDW1BUMPING-BUMPING LAKE DAM05-09-2022INFLOW (KAF)9980124
94CLFW1NACHES-NEAR CLIFFDEL05-09-2022DISCHARGE (KAF)332267124
95SPOW1SPOKANE-AT SPOKANE05-09-2022DISCHARGE (KAF)16391307125
96CLUW1CLE ELUM-CLE ELUM LAKE05-09-2022INFLOW (KAF)337270125
97HODO3HOOD-NEAR TUCKER BRIDGE05-09-2022DISCHARGE (KAF)179142126
98KEDW1YAKIMA-KEECHELUS LAKE05-09-2022INFLOW (KAF)9272128
99TNAW1TEANAWAY-BELOW FORKS05-09-2022DISCHARGE (KAF)8062130
100COEI1COEUR D ALENE-COEUR D ALENE LAKE05-09-2022INFLOW (KAF)15511188131
101KADW1KACHESS-KACHESS DAM05-09-2022INFLOW (KAF)8262131
102NACW1NACHES-NEAR NACHES05-09-2022DISCHARGE (KAF)566393144
103KIOW1YAKIMA-AT KIONA05-09-2022DISCHARGE (KAF)901602150
104GIBO3UMATILLA-NEAR GIBBON05-09-2022DISCHARGE (KAF)4630153
105EASW1YAKIMA-AT EASTON05-09-2022DISCHARGE (KAF)13185154
106PDTO3UMATILLA-AT PENDLETON05-09-2022DISCHARGE (KAF)7847166
107TCHW1WALLA WALLA-NEAR TOUCHET05-09-2022DISCHARGE (KAF)8148169
108PARW1YAKIMA-NEAR PARKER05-09-2022DISCHARGE (KAF)603336179
109MYKO3MCKAY CREEK-NEAR PILOT ROCK05-09-2022DISCHARGE (KAF)156252
110UMAO3UMATILLA-NEAR UMATILLA05-09-2022DISCHARGE (KAF)12641304
111BULO3BULLY CREEK-BULLY CREEK DAM05-09-2022INFLOW (KAF)001560
112BFEI1KOOTENAI-AT BONNERS FERRY05-09-2022STAGE (FT)MMM
113HOPI1PEND OREILLE-PEND OREILLE LAKE NR HOPE05-09-2022LAKE ELEVATION (FT)MMM
114SJMI1ST JOE-AT ST MARIES05-09-2022STAGE (FT)MMM
115MILI1SNAKE-AT MILNER05-09-2022DISCHARGE (KAF)M49M